Flag for Germany

Past Weather in Neustadt an der Weinstraße, Rhineland-Palatinate, Germany — Yesterday and Last 2 Weeks

Now
51 °F

Clear.


Feels Like: 51 °F
Forecast: 87 / 60 °F
Wind: No wind

Location: Ramstein

Current Time: Aug 24, 2019 at 2:58:40 am

Latest Report: Aug 24, 2019 at 1:56 am


Visibility: N/A

Pressure: 30.18 "Hg

Humidity: 96%

Dew Point: 50 °F

Location of Neustadt an der WeinstraßeLocation

Past Weather in Neustadt an der Weinstraße — Graph

°F

Neustadt an der Weinstraße Temperature Yesterday

Maximum temperature yesterday: 82 °F (at 3:56 pm)
Minimum temperature yesterday: 43 °F (at 5:56 am)
Average temperature yesterday: 66 °F

High & Low Weather Summary for the Past Weeks

 TemperatureHumidityPressure
High88 °F (Aug 9, 3:56 pm)100% (Aug 9, 9:35 pm)30.38 "Hg (Aug 9, 9:35 pm)
Low43 °F (Aug 22, 4:56 am)34% (Aug 23, 1:56 pm)29.72 "Hg (Aug 9, 6:31 pm)
Average64 °F76%30.04 "Hg
* Reported Aug 9 12:56 am — Aug 24 12:56 am, Neustadt an der Weinstraße. Weather by CustomWeather, © 2019

Note: Actual official high and low records may vary slightly from our data, if they occured in-between our weather recording intervals... More about our weather records

Advertising

Neustadt an der Weinstraße Weather History for the Previous 24 Hours

Scroll right to see more
 ConditionsComfort  
Time TempWeatherWind HumidityBarometerVisibility
12:56 am
Sat, Aug 24
52 °FClear.No wind92%30.19 "HgN/A
11:56 pm
Fri, Aug 23
52 °FClear.No wind93%30.19 "HgN/A
10:56 pm59 °FClear.No wind77%30.20 "HgN/A
9:56 pm61 °FClear.No wind74%30.20 "HgN/A
8:56 pm69 °FClear.No wind54%30.20 "Hg5 mi
7:56 pm77 °FSunny.8 mph39%30.19 "HgN/A
6:56 pm81 °FSunny.10 mph34%30.19 "HgN/A
4:56 pm82 °FSunny.10 mph35%30.21 "HgN/A
3:56 pm82 °FSunny.9 mph37%30.22 "HgN/A
2:56 pm81 °FSunny.14 mph34%30.23 "HgN/A
1:56 pm81 °FSunny.13 mph34%30.24 "HgN/A
12:56 pm79 °FSunny.13 mph39%30.26 "HgN/A
11:56 am77 °FSunny.12 mph44%30.27 "HgN/A
10:56 am73 °FMild.6 mph50%30.29 "HgN/A
9:56 am66 °FSunny.No wind64%30.30 "HgN/A
8:56 am57 °FSunny.3 mph82%30.30 "HgN/A
7:56 am54 °FSunny.No wind88%30.30 "HgN/A
6:56 am46 °FSunny.No wind100%30.29 "HgN/A
5:56 am43 °FClear.No wind100%30.29 "HgN/A
4:56 am45 °FClear.No wind100%30.28 "HgN/A
3:56 am46 °FClear.No wind100%30.28 "HgN/A
Weather by CustomWeather, © 2019

See weather overview